WB5OMR-10 Weather Reports


time (UTC)temp
C
wind
direction
speed
KPH
gust
KPH
rain 1hr
cm
rain 24hr
cm
rain mn
cm
humidity
%
barometer
mb
20260505063031 22 0.0 0.0 0.00 0.00 0.00 100 1010.0
20260505062026 22 0.0 0.0 0.00 0.00 0.00 100 1010.3
20260505061052 22 0.0 0.0 0.00 0.00 0.00 100 1010.3
20260505060129 22 0.0 0.0 0.00 0.00 0.00 100 1010.3
20260505055033 22 0.0 0.0 0.00 0.00 0.00 100 1010.2
20260505054029 22 0.0 0.0 0.00 0.00 0.00 100 1010.3
20260505053034 22 0.0 0.0 0.00 0.00 0.00 100 1010.4
20260505052029 22 0.0 0.0 0.00 0.00 0.00 100 1010.5
20260505051034 22 0.0 0.0 0.00 0.00 0.00 100 1010.6
20260505041027 23 0.0 0.0 0.00 0.00 0.00 100 1010.5
20260505040032 23 0.0 0.0 0.00 0.00 0.00 100 1010.6
20260505035028 23 0.0 0.0 0.00 0.00 0.00 100 1010.7
20260505034034 23 0.0 0.0 0.00 0.00 0.00 100 1010.7
20260505033049 23 0.0 0.0 0.00 0.00 0.00 100 1010.6
20260505032034 23 0.0 0.0 0.00 0.00 0.00 100 1010.7
20260505031029 23 0.0 0.0 0.00 0.00 0.00 100 1010.7
20260505030035 23 0.0 0.0 0.00 0.00 0.00 100 1010.7
20260505025030 23 0.0 0.0 0.00 0.00 0.00 100 1010.6
20260505024025 23 0.0 0.0 0.00 0.00 0.00 100 1010.5
20260505023031 23 0.0 0.0 0.00 0.00 0.00 100 1010.4
20260505022026 23 0.0 0.0 0.00 0.00 0.00 100 1010.4
20260505021053 24 0.0 0.0 0.00 0.00 0.00 100 1010.5
20260505020027 24 0.0 0.0 0.00 0.00 0.00 100 1010.4
20260505015053 24 0.0 0.0 0.00 0.00 0.00 100 1010.3
20260505014028 24 0.0 0.0 0.00 0.00 0.00 100 1010.2
20260505013033 24 0.0 0.0 0.00 0.00 0.00 100 1010.0
20260505012029 25 0.0 0.0 0.00 0.00 0.00 100 1009.8
20260505011034 25 0.0 0.0 0.00 0.00 0.00 100 1010.0
20260505010030 25 0.0 0.0 0.00 0.00 0.00 100 1010.0
20260505005036 25 0.0 0.0 0.00 0.00 0.00 100 1010.1
20260505004031 25 0.0 0.0 0.00 0.00 0.00 100 1010.1
20260505003028 25 0.0 0.0 0.00 0.00 0.00 100 1010.1
20260505002052 25 0.0 0.0 0.00 0.00 0.00 100 1010.0
20260505001027 26 0.0 0.0 0.00 0.00 0.00 100 1010.0
20260505000033 26 0.0 0.0 0.00 0.00 0.00 91 1010.0
20260504235028 29 0.0 0.0 0.00 0.00 0.00 78 1010.0
20260504234033 26 0.0 0.0 0.00 0.00 0.00 92 1010.1
20260504233031 26 0.0 0.0 0.00 0.00 0.00 91 1010.1
20260504232034 26 0.0 0.0 0.00 0.00 0.00 89 1010.2
20260504231029 27 0.0 0.0 0.00 0.00 0.00 90 1010.3
20260504230035 26 0.0 0.0 0.00 0.00 0.00 90 1010.5
20260504225030 26 0.0 0.0 0.00 0.00 0.00 89 1010.5
20260504224046 26 0.0 0.0 0.00 0.00 0.00 88 1010.7
20260504223031 26 0.0 0.0 0.00 0.00 0.00 88 1010.9
20260504222027 26 0.0 0.0 0.00 0.00 0.00 88 1010.8
20260504221034 26 0.0 0.0 0.00 0.00 0.00 87 1010.9
20260504220027 26 0.0 0.0 0.00 0.00 0.00 86 1011.1
20260504215033 27 0.0 0.0 0.00 0.00 0.00 82 1011.1
20260504214048 27 0.0 0.0 0.00 0.00 0.00 80 1011.3
20260504213034 27 0.0 0.0 0.00 0.00 0.00 79 1011.5
20260504212030 27 0.0 0.0 0.00 0.00 0.00 80 1011.5
20260504211035 27 0.0 0.0 0.00 0.00 0.00 80 1011.8
20260504210030 27 0.0 0.0 0.00 0.00 0.00 80 1011.9
20260504205055 27 0.0 0.0 0.00 0.00 0.00 80 1012.0
20260504204051 27 0.0 0.0 0.00 0.00 0.00 80 1012.3
20260504203026 26 0.0 0.0 0.00 0.00 0.00 79 1012.4
20260504202032 26 0.0 0.0 0.00 0.00 0.00 81 1012.7
20260504201027 26 0.0 0.0 0.00 0.00 0.00 79 1013.0
20260504200032 26 0.0 0.0 0.00 0.00 0.00 78 1013.0
20260504195027 26 0.0 0.0 0.00 0.00 0.00 80 1013.1
20260504194032 26 0.0 0.0 0.00 0.00 0.00 82 1013.3
20260504193048 26 0.0 0.0 0.00 0.00 0.00 82 1013.6
20260504192033 26 0.0 0.0 0.00 0.00 0.00 82 1013.6
20260504191027 26 0.0 0.0 0.00 0.00 0.00 82 1013.8
20260504190032 26 0.0 0.0 0.00 0.00 0.00 82 1014.0
20260504185028 26 0.0 0.0 0.00 0.00 0.00 80 1014.2
20260504184033 26 0.0 0.0 0.00 0.00 0.00 78 1014.1
20260504183029 26 0.0 0.0 0.00 0.00 0.00 76 1014.2
20260504182035 26 0.0 0.0 0.00 0.00 0.00 78 1014.3
20260504181030 25 0.0 0.0 0.00 0.00 0.00 79 1014.5
20260504180034 25 0.0 0.0 0.00 0.00 0.00 78 1014.5
20260504175030 25 0.0 0.0 0.00 0.00 0.00 80 1014.6
20260504174036 25 0.0 0.0 0.00 0.00 0.00 82 1014.7
20260504173031 25 0.0 0.0 0.00 0.00 0.00 81 1015.0
20260504172026 25 0.0 0.0 0.00 0.00 0.00 83 1015.0
20260504171031 25 0.0 0.0 0.00 0.00 0.00 84 1015.2
20260504151026 22 0.0 0.0 0.00 0.00 0.00 100 1016.2
20260504141109 20 0.0 0.0 0.00 0.00 0.00 100 1016.4
20260504081034 17 0.0 0.0 0.00 0.00 0.00 100 1016.7